Miscellaneous Local Product
Issued by NWS Hastings, NE

Home | Current Version | Previous Version | Graphics & Text | Print | Product List | Glossary On
Versions: 1 2 3 4 5 6 7 8 9 10 11 12 13 14 15 16 17 18 19 20 21 22 23 24 25 26 27 28 29 30 31 32 33 34 35 36 37 38 39 40 41 42 43 44 45 46 47 48 49 50
000
AXUS43 KGID 201702
MISGRI

GID CWA HOURLY WEATHER ROUNDUP
NATIONAL WEATHER SERVICE HASTINGS NE
1200 PM CDT SAT SEP 20 2014

NOTE: "FAIR" INDICATES FEW OR NO CLOUDS BELOW 12,000 FEET WITH NO
SIGNIFICANT WEATHER AND/OR OBSTRUCTIONS TO VISIBILITY.

...SOUTH CENTRAL NEBRASKA...

CITY           SKY/WX    TMP DP  RH WIND       PRES   REMARKS
GRAND ISLAND   SUNNY     80  55  42 NE7       30.01R
HASTINGS       SUNNY     81  52  36 NE13      30.01R
KEARNEY        SUNNY     79  55  44 NE13      30.04R
ORD            SUNNY     78  56  46 NW7       30.01S
YORK           SUNNY     79  61  53 NE7       29.98S
AURORA         SUNNY     80  54  41 NE6       29.99R
LEXINGTON      SUNNY     79  54  42 NE13      30.06R
HOLDREGE       SUNNY     78  53  41 N17       30.04R
HEBRON         MOSUNNY   79  62  55 NW3       29.97S

...NEBRASKA PANHANDLE...

CITY           SKY/WX    TMP DP  RH WIND       PRES   REMARKS
CHADRON        SUNNY     77  48  35 NW17G24   30.15R
ALLIANCE       SUNNY     75  47  36 NW10      30.17S
SCOTTSBLUFF    SUNNY     74  49  41 W9        30.20S
SIDNEY         SUNNY     75  47  36 NE12      30.21S

...WESTERN AND NORTH CENTRAL NEBRASKA...

CITY           SKY/WX    TMP DP  RH WIND       PRES   REMARKS
VALENTINE      SUNNY     80  51  36 NW10      30.06S
AINSWORTH      SUNNY     76  48  37 NW10      30.06R
ONEILL         SUNNY     76  58  54 W5        30.01R
BROKEN BOW     SUNNY     80  51  36 N9        30.06R
IMPERIAL       SUNNY     78  45  30 NE17      30.13R
NORTH PLATTE   SUNNY     79  51  37 N12       30.09R
MCCOOK         SUNNY     81  50  33 NE17G24   30.08R

...EASTERN NEBRASKA...

CITY           SKY/WX    TMP DP  RH WIND       PRES   REMARKS
NORFOLK        SUNNY     79  58  48 NW10      29.97R
SO SIOUX CITY  SUNNY     76  62  62 NW8       29.93S
TEKAMAH        SUNNY     80  63  55 NW6       29.92S
ALBION         SUNNY     78  54  43 NW8       30.00S
OMAHA EPPLEY   MOSUNNY   78  67  68 S10       29.91F
OFFUTT AFB     MOSUNNY   77  72  85 SW12      29.92F
MILLARD        SUNNY     77  68  75 SW7       29.92F
LINCOLN        MOSUNNY   79  67  66 S7        29.95F
NEBRASKA CITY    N/A     70  69  97 SW8       29.96S
BEATRICE       CLOUDY    76  66  70 N3        29.96S
FALLS CITY     TSTM      69  67  93 MISG      29.95F VSB 1/2

...NORTHERN KANSAS...

CITY           SKY/WX    TMP DP  RH WIND       PRES   REMARKS
GOODLAND       SUNNY     77  53  43 NE22G28   30.13R
HILL CITY      SUNNY     82  64  54 NE14      30.01R
NORTON         SUNNY     81  45  28 NE18G28   30.02R
SMITH CENTER   SUNNY     81  63  54 N9        29.99R
BELOIT         MOSUNNY   81  64  57 SW5       29.96R
RUSSELL        SUNNY     81  66  60 SW13      29.96F
CONCORDIA      SUNNY     81  68  64 SW8G17    29.96S
SALINA         SUNNY     85  67  54 S13       29.97F
TOPEKA         SUNNY     84  70  62 SW13      29.98S



USA.gov is the U.S. government's official web portal to all federal, state and local government web resources and services.